Location: Les Chemineaux
(47.3024°N, 1.5104°E)
Time: 12:53:30
(UTC+00:00)

Cosmos 836 Rocket - Pass Details

Date: 19 May 2025
Orbit: 754 x 773 km, 74.1° (Epoch: 11 June)

Event Time Altitude Azimuth Distance (km) Brightness Sun altitude
Exits shadow 21:27:45 12° 194° (SSW) 2,178 6.5 -15.5°
Maximum altitude 21:32:39 76° 110° (ESE) 784 4.4 -15.9°
Drops below altitude 10° 21:37:50 10° 25° (NNE) 2,291 7.4 -16.4°
Sets 21:40:12 0° 24° (NNE) 3,219 8.2 -16.6°
